Location: Del Amo
(33.8464°N, 118.2104°W)
Time: 19:51:18
(UTC+00:00)

S-56A Canister/Altair - Pass Details

Date: 13 September 2024
Orbit: 636 x 2487 km, 38.9° (Epoch: 14 October)

Event Time Altitude Azimuth Distance (km) Brightness Sun altitude
Rises 02:53:44 0° 248° (WSW) 3,227 11.7 -11.3°
Reaches altitude 10° 02:55:50 10° 248° (WSW) 2,437 11.0 -11.8°
Maximum altitude 03:01:34 89° 342° (NNW) 1,066 8.2 -12.9°
Enters shadow 03:10:15 10° 69° (ENE) 3,612 10.5 -14.7°
Drops below altitude 10° 03:10:18 10° 69° (ENE) 3,625 - -14.7°
Sets 03:14:03 0° 70° (ENE) 4,916 - -15.4°
